Location: Buckland
(65.9785°N, 161.1281°W)
Time: 05:07:49
(UTC+00:00)

Transit 4A - Pass Details

Date: 27 November 2020
Orbit: 864 x 980 km, 66.8° (Epoch: 26 January)

Event Time Altitude Azimuth Distance (km) Brightness Sun altitude
Rises 04:23:33 0° 309° (NW) 3,695 11.6 -18.4°
Reaches altitude 10° 04:26:42 10° 295° (WNW) 2,739 11.1 -18.7°
Maximum altitude 04:31:25 22° 247° (WSW) 1,978 10.5 -19.2°
Drops below altitude 10° 04:36:04 10° 199° (SSW) 2,693 10.7 -19.7°
Sets 04:39:08 0° 185° (S) 3,618 11.1 -20.0°
